CAPE
0 0 0 0 0 0 0 0 0 0 0 0 0 0 0 0 7 43 0 32 41 178 337 374 719 950 935 712 616 456 333 55 5 14 25 9 38 22 34 32 56 38 35 21 20 10 19 12 2
0 0 0 0 0 0 0 0 0 0 0 0 0 0 0 0 0 0 0 0 35 93 231 336 600 913 811 639 547 431 294 77 5 22 15 13 23 37 14 38 47 16 26 17 14 8 3 4 0
0 0 0 0 0 0 0 0 0 0 0 0 0 0 0 0 0 0 0 0 25 102 121 261 478 720 665 592 498 381 237 96 7 8 18 9 31 24 33 37 40 29 29 15 12 4 3 0 0
0 0 0 0 0 0 0 0 0 0 0 0 0 0 0 0 0 0 0 0 34 56 64 232 496 597 548 568 497 359 150 9 44 19 13 12 21 30 34 39 28 29 12 6 4 1 0 0 0
0 0 0 0 0 0 0 0 0 0 0 0 0 0 3 4 0 0 0 0 54 0 61 175 329 473 480 540 502 348 240 59 28 13 12 5 16 29 26 36 37 37 20 8 1 0 0 0 0
0 0 0 0 0 0 0 0 0 0 0 0 0 0 0 12 3 0 0 0 34 0 39 73 150 203 314 416 425 365 266 164 52 13 15 5 11 26 28 24 36 28 13 3 0 0 0 0 0
0 0 0 0 0 0 0 0 0 0 0 0 0 0 1 9 0 0 0 0 24 0 0 21 55 80 157 260 254 227 231 98 62 19 15 11 20 23 36 26 23 8 7 23 3 0 0 0 0
0 0 0 0 0 0 0 0 0 0 0 0 0 0 0 3 0 0 0 0 0 5 0 0 15 8 29 38 128 104 53 12 9 1 0 0 7 14 12 8 4 3 6 7 0 0 0 0 0
0 0 0 0 0 0 0 0 0 0 0 0 0 0 5 20 0 17 7 0 0 1 4 0 0 0 0 0 4 23 9 0 0 0 0 0 0 0 0 0 3 2 24 4 0 0 0 0 0
0 0 0 0 0 0 0 0 0 0 0 0 0 6 41 20 5 5 0 0 0 1 0 0 0 0 0 0 0 0 0 0 0 0 0 0 0 0 0 0 0 7 10 5 0 0 0 0 0
0 0 0 0 0 0 0 0 0 0 0 0 0 6 22 8 7 0 0 0 0 0 0 0 0 0 0 0 0 0 0 0 0 0 0 0 0 0 0 0 0 0 0 0 0 0 0 0 0
0 0 0 0 0 0 0 0 0 0 0 0 0 0 33 18 0 0 0 0 0 0 0 0 0 0 0 0 0 0 0 0 0 0 0 0 0 0 0 0 0 0 0 0 0 0 0 0 0
0 0 0 0 0 0 0 0 0 0 0 0 0 0 34 39 0 0 0 0 0 0 0 0 0 0 0 0 0 0 0 0 0 0 0 1 0 0 0 0 0 0 0 0 0 0 0 0 0
0 0 0 0 0 0 0 0 0 0 0 0 0 0 0 50 26 0 0 0 0 0 0 0 0 0 0 0 0 0 0 0 0 0 0 0 0 0 0 0 0 0 0 0 0 0 0 0 0
0 0 0 0 0 0 0 0 0 0 0 0 0 0 0 0 21 29 6 18 16 0 0 0 0 0 0 0 0 0 0 0 0 0 0 0 0 0 0 0 0 0 0 0 0 0 0 0 0
0 0 0 0 0 0 0 0 0 0 0 0 0 0 0 0 0 10 6 38 8 10 1 0 0 0 0 0 0 0 0 0 0 0 0 0 0 0 0 0 0 0 0 0 0 0 0 0 0
5 0 0 0 0 0 0 0 0 0 0 0 0 0 0 0 0 0 0 53 13 13 12 5 0 0 0 0 0 0 0 0 0 0 0 0 0 0 0 0 0 0 0 0 0 0 0 0 0
2 0 0 0 0 0 0 0 0 0 0 0 0 0 0 0 0 0 0 7 37 27 23 14 10 6 2 1 0 0 0 0 0 0 0 0 0 0 0 0 0 0 0 0 0 0 0 0 0
0 0 0 0 0 0 0 0 0 0 0 0 0 0 0 0 0 0 0 0 7 12 14 7 8 6 0 2 6 5 0 0 0 0 0 0 0 0 0 0 0 0 0 0 0 0 0 0 0
6 2 0 0 0 0 0 0 0 0 0 0 0 0 0 0 0 0 0 0 0 1 21 10 0 0 0 0 9 9 1 0 1 0 0 0 0 0 0 0 0 0 0 0 0 0 0 0 0
0 0 0 0 0 0 0 0 0 0 0 0 0 0 0 0 0 0 0 0 0 0 0 9 7 4 0 2 1 2 4 11 4 17 0 0 0 0 0 0 0 0 0 0 0 0 0 0 0
0 0 0 0 0 0 0 0 0 0 0 0 0 0 0 0 0 0 0 0 0 0 0 0 0 1 0 1 2 2 43 39 51 53 29 0 0 0 0 0 0 0 0 0 0 0 0 0 0
0 1 0 9 25 7 0 14 0 0 0 0 0 0 0 0 0 0 0 0 0 0 0 0 0 0 1 0 8 16 37 86 71 45 33 32 15 0 0 0 0 0 0 0 0 0 0 0 0
0 23 7 0 9 22 0 3 0 0 0 0 0 0 0 0 0 0 0 0 0 0 0 0 0 0 0 0 0 0 18 73 98 46 19 5 13 10 1 0 0 0 0 0 0 0 0 0 0
72 46 27 42 5 0 0 0 0 0 0 0 0 0 0 0 0 0 0 0 0 0 0 0 0 0 0 0 0 0 0 0 43 56 7 1 0 0 1 0 0 0 0 0 0 0 0 0 0
16 46 88 3 2 0 0 0 0 0 0 0 0 0 0 0 0 0 0 0 0 0 0 0 0 0 0 0 0 0 0 0 0 40 50 10 0 0 0 0 0 0 0 0 0 0 0 0 0
2 47 2 4 1 0 0 0 0 0 0 0 0 0 0 0 0 0 0 0 0 0 0 0 0 0 0 0 0 0 0 0 0 0 23 25 9 0 0 0 0 0 0 0 0 0 0 0 0
4 0 1 2 0 5 0 0 0 0 0 0 0 0 0 0 0 0 0 0 0 0 0 0 0 0 0 0 0 0 0 0 0 0 0 7 8 1 1 0 1 0 0 0 0 0 0 0 0
7 10 1 2 2 1 0 0 0 0 0 0 0 0 0 0 0 0 0 0 0 0 0 0 0 0 0 0 0 0 0 0 0 0 0 0 4 3 0 0 0 0 4 0 0 0 0 0 0
17 20 4 1 1 0 0 0 0 0 0 0 0 0 0 0 0 0 0 0 0 0 0 0 0 0 0 0 0 0 0 0 0 0 0 0 0 0 0 0 1 4 1 2 3 0 0 1 5
CIN
0 0 0 0 0 0 0 0 0 0 0 0 0 0 0 0 -12 -40 0 -137 -138 -93 -34 -22 -2 0 0 0 0 0 -6 -160 0 -1 -4 0 -3 -1 -3 -2 -1 -1 -2 -1 -1 0 0 0 0
0 0 0 0 0 0 0 0 0 0 0 0 0 0 0 0 0 0 0 0 -108 -123 -49 -26 -2 0 0 0 0 0 -24 -156 0 0 0 0 -1 -22 -1 -68 -1 -2 0 0 -1 0 0 0 0
0 0 0 0 0 0 0 0 0 0 0 0 0 0 0 0 0 0 0 0 -91 -109 -86 -43 -6 0 -3 0 0 -2 -45 -128 0 0 0 0 -2 -7 0 -3 -1 0 -1 0 0 0 0 0 0
0 0 0 0 0 0 0 0 0 0 0 0 0 0 0 0 0 0 0 0 -118 -122 -112 -41 -2 -1 0 0 0 -3 -77 -317 -190 0 0 0 -1 -7 -3 -1 -5 -1 0 0 0 0 0 0 0
0 0 0 0 0 0 0 0 0 0 0 0 0 0 -257 -261 -59 0 0 0 -126 0 -114 -52 -7 -4 -3 0 0 -10 -44 -158 -147 0 0 0 0 -10 -3 -3 -2 0 0 0 0 0 0 0 0
0 0 0 0 0 0 0 0 0 0 0 0 0 0 0 -277 -213 0 0 0 -130 0 -113 -80 -40 -29 -23 -9 -5 -11 -26 -60 -127 0 0 0 0 -5 -2 -2 -3 -3 -1 -1 0 0 0 0 0
0 0 0 0 0 0 0 0 0 0 0 0 0 0 -18 -205 0 0 0 0 -142 0 0 -112 -93 -66 -46 -37 -35 -39 -25 -75 -121 0 0 -1 -1 -2 -3 -3 -2 0 0 -2 0 0 0 0 0
0 0 0 0 0 0 0 0 0 0 0 0 0 0 0 -216 0 -7 0 0 -12 -78 0 0 -140 -111 -144 -118 -62 -76 -150 -185 -132 -2 0 0 -14 -11 -14 -18 -1 0 -1 0 0 0 0 0 0
0 0 0 0 0 0 0 0 0 0 0 0 0 0 -104 -300 0 -202 -155 0 -1 -36 -59 0 0 0 0 0 -60 -104 -156 0 0 0 0 0 0 0 0 0 -10 -1 -2 0 0 0 0 0 0
0 0 0 0 0 0 0 0 0 0 0 0 0 -203 -294 -292 -140 -122 0 0 0 -13 -5 0 -60 0 0 0 0 0 0 0 0 0 0 0 0 0 0 0 0 -11 -9 -1 0 0 0 0 0
0 0 0 0 0 0 0 0 0 0 0 0 0 -80 -273 -291 -234 -24 0 0 0 0 0 0 0 0 0 0 0 0 0 0 0 0 0 0 0 0 0 0 0 0 0 0 0 0 0 0 0
0 0 0 0 0 0 0 0 0 0 0 0 0 0 -256 -281 0 0 0 0 0 0 0 0 0 0 0 0 0 0 0 0 0 0 0 0 0 0 0 0 0 0 0 0 0 0 0 0 0
0 0 0 0 0 0 0 0 0 0 0 0 0 0 -202 -290 0 0 0 0 0 0 0 0 0 0 0 0 0 0 0 0 0 0 -54 -39 0 0 0 0 0 0 0 0 0 0 0 0 0
0 0 0 0 0 0 0 0 0 0 0 0 0 0 0 -279 -307 0 0 0 0 0 0 0 0 0 0 0 0 0 0 0 0 -11 -18 -10 0 0 0 0 0 0 0 0 0 0 0 0 0
0 0 -2 0 0 0 0 0 0 0 0 0 0 0 0 0 -297 -301 -171 -320 -290 0 0 0 0 0 0 0 0 0 0 0 0 0 0 0 0 0 0 0 0 0 0 0 0 0 0 0 0
0 0 0 0 0 0 0 0 0 0 0 0 0 0 0 0 0 -324 -329 -281 -287 -286 -239 0 0 0 0 0 0 0 0 0 0 0 0 0 0 0 0 0 0 0 0 0 0 0 0 0 0
-8 0 0 0 0 0 0 0 0 0 0 0 0 0 0 0 0 0 -117 -285 -346 -330 -313 -284 0 0 0 0 0 0 0 0 0 0 0 0 0 0 0 0 0 0 0 0 0 0 0 0 0
-1 0 0 0 0 0 0 0 0 0 0 0 0 0 0 0 0 0 0 -380 -347 -317 -319 -298 -260 -221 -224 -265 0 0 0 0 0 0 0 0 0 0 0 0 0 0 0 0 0 0 0 0 0
0 0 0 0 0 0 0 0 0 0 0 0 0 0 0 0 0 0 0 0 -354 -375 -323 -308 -274 -235 -1 -214 -228 -228 0 0 0 0 0 0 0 0 0 0 0 0 0 0 0 0 0 0 0
-16 -3 0 0 0 0 0 0 0 0 0 0 0 0 0 0 0 0 0 0 0 -250 -361 -301 0 -87 0 0 -180 -146 -44 0 -64 0 0 0 0 0 0 0 0 0 0 0 0 0 0 0 0
0 0 0 0 0 -19 0 0 0 0 0 0 0 0 0 0 0 0 0 0 0 0 0 -362 -330 -224 0 -163 -75 -65 -152 -172 -145 -242 0 0 0 0 0 0 0 0 0 0 0 0 0 0 0
0 0 0 0 0 0 0 0 0 0 0 0 0 0 0 0 0 0 0 0 0 0 0 0 -51 -247 0 -203 -151 -146 -131 -136 -184 -191 -224 0 0 0 0 0 0 0 0 0 0 0 0 0 0
0 0 0 -12 -10 -27 0 -14 0 0 0 0 0 0 0 0 0 0 0 0 0 0 0 0 0 0 -262 0 -141 -134 -119 -120 -157 -167 -182 -246 -271 -23 0 0 0 0 0 0 0 0 0 0 0
0 -6 -18 -21 -27 -1 0 -6 0 0 0 0 0 0 0 0 0 0 0 0 0 0 0 0 0 0 0 0 0 0 -105 -114 -110 -156 -227 -237 -269 -277 -201 0 0 0 0 0 0 0 0 0 0
-12 -6 -5 -1 -2 -1 0 0 0 0 0 0 0 0 0 0 0 0 0 0 0 0 0 0 0 0 0 0 0 0 -10 -7 -100 -103 -182 -62 0 0 -193 0 0 0 0 0 0 0 0 0 0
-41 -11 -1 -27 -32 0 0 0 0 0 0 0 0 0 0 0 0 0 0 0 0 0 0 0 0 0 0 0 0 0 0 0 0 -124 -120 -151 0 0 0 0 0 0 0 0 0 0 0 0 0
-11 -6 -80 -35 0 0 0 0 0 0 0 0 0 0 0 0 0 0 0 0 0 0 0 0 0 0 0 0 0 0 0 0 0 0 -113 -158 -201 0 0 0 0 0 0 0 0 0 0 0 0
-3 0 0 -2 0 -2 0 0 0 0 0 0 0 0 0 0 0 0 0 0 0 0 0 0 0 0 0 0 0 0 0 0 0 0 0 -128 -184 -17 -43 -26 -44 -26 -38 0 0 0 0 0 -1
-21 -1 -3 0 0 -2 0 0 0 0 0 0 0 0 0 0 0 0 0 0 0 0 0 0 0 0 0 0 0 0 0 0 0 0 0 0 -44 -65 -21 0 0 -56 -62 -30 0 0 -9 -8 -4
-13 -34 -3 -6 -4 0 0 0 0 0 0 0 0 0 0 0 0 0 0 0 0 0 0 0 0 0 0 0 0 0 0 0 0 0 0 0 0 0 -5 0 -65 -66 -54 -68 -59 0 0 -15 -17
Wind_Speed
11 13 3 5 6 6 4 5 4 6 4 2 2 3 6 3 3 2 1 12 13 11 8 8 10 14 14 13 13 12 12 13 13 12 11 11 11 11 13 13 13 13 13 13 13 14 12 11 10
9 8 5 2 5 4 3 2 7 4 2 1 3 5 5 2 3 5 4 10 13 12 8 7 11 13 14 14 14 13 12 12 14 14 12 11 10 14 13 12 14 11 12 13 13 11 11 10 8
7 4 3 3 2 2 3 1 6 5 4 1 2 2 3 3 2 6 5 11 11 12 9 9 11 12 13 14 14 13 12 11 14 14 14 11 10 13 11 15 13 14 11 12 11 10 9 7 6
5 6 5 4 3 5 6 6 6 6 1 2 3 4 4 0 8 7 7 9 12 11 10 10 11 12 12 13 14 14 13 12 11 13 14 13 10 11 13 13 11 12 11 10 10 9 8 7 6
4 3 3 2 5 4 4 4 3 4 3 4 5 4 4 3 9 8 7 8 12 8 9 9 11 11 11 12 13 13 13 12 11 11 13 13 12 12 13 11 12 13 10 10 9 8 7 5 5
5 3 4 3 6 5 4 4 3 3 3 3 3 5 2 6 8 7 7 8 12 11 8 8 9 10 10 10 12 12 12 12 12 11 11 12 11 10 12 9 11 14 11 11 9 8 6 5 4
3 4 3 4 5 7 2 2 5 3 4 3 1 4 2 2 6 7 6 4 12 10 9 6 7 6 8 9 9 10 11 12 11 11 10 10 9 7 11 9 6 10 9 8 8 6 5 4 3
3 4 3 3 3 5 8 4 3 4 1 1 3 3 4 4 6 7 5 4 10 10 9 8 7 6 5 5 8 8 9 11 11 10 9 7 6 6 7 9 10 10 8 7 6 5 4 3 2
4 4 1 4 2 2 6 4 7 1 3 3 2 4 5 12 6 5 5 4 6 8 9 7 8 8 7 6 6 8 9 10 11 9 9 6 4 5 5 5 8 10 9 7 6 4 4 5 2
4 4 6 5 4 0 3 5 6 4 7 4 4 6 8 8 7 7 7 7 7 7 7 7 8 8 9 7 7 6 6 4 4 5 6 4 5 5 5 5 7 9 8 7 6 5 5 5 2
3 4 5 10 1 4 3 5 5 2 2 3 2 7 8 6 7 7 7 7 7 9 6 7 8 7 8 6 5 3 4 4 5 7 6 6 4 4 4 3 2 2 6 3 4 3 3 4 4
3 7 6 7 3 1 1 5 6 2 6 5 4 11 7 8 9 9 8 8 7 6 10 9 8 7 7 5 6 6 5 5 4 7 9 4 3 4 5 4 4 4 3 5 4 3 5 5 6
6 7 7 8 5 4 1 4 5 7 12 11 6 9 12 9 9 7 8 7 7 8 6 10 8 7 7 7 5 6 7 7 7 7 9 6 5 5 4 4 4 5 4 4 4 4 4 5 6
5 4 3 5 6 5 4 6 2 4 9 9 8 9 8 11 13 8 9 11 10 9 8 7 11 8 7 7 8 7 7 8 8 8 8 7 6 6 5 5 5 4 5 5 5 5 5 5 5
4 3 5 4 6 5 2 5 8 12 9 11 11 8 8 10 11 14 15 14 15 12 11 9 9 12 9 9 9 7 7 7 7 7 7 8 7 7 7 6 6 7 7 7 5 5 4 4 4
4 0 2 5 8 8 8 13 5 11 5 13 13 10 8 10 12 13 13 14 13 12 13 11 8 12 13 9 8 6 7 7 8 7 7 10 10 8 6 6 6 5 5 5 4 4 4 5 4
3 4 7 6 9 4 8 8 6 6 5 7 8 8 8 7 8 10 13 15 15 16 13 13 12 12 14 12 6 7 9 7 7 7 8 10 12 11 8 6 6 6 5 5 5 4 4 4 4
9 6 6 7 7 6 7 11 8 8 8 10 9 9 8 9 9 10 10 9 12 14 14 14 11 11 12 10 8 5 5 9 8 8 9 10 9 12 10 7 7 7 5 6 4 5 5 4 5
5 4 7 4 5 6 6 10 8 8 7 9 9 9 9 10 10 6 9 10 12 11 12 14 13 15 9 8 9 10 11 7 9 9 13 13 11 12 12 9 8 8 9 10 8 5 7 5 4
11 10 15 6 4 4 5 11 9 8 11 11 13 13 11 8 8 10 8 9 10 14 15 14 14 14 11 9 8 8 7 8 8 7 10 14 14 14 13 12 11 11 9 9 11 10 5 6 6
10 16 7 10 5 3 4 13 13 8 15 14 14 14 14 14 10 10 9 9 9 12 13 14 15 13 12 14 7 5 3 5 5 8 9 12 14 14 15 15 12 12 11 10 11 12 13 9 5
15 9 6 5 4 8 4 12 17 6 10 8 8 9 10 11 11 7 6 6 3 9 7 6 6 8 9 11 11 13 12 12 11 12 10 10 13 13 14 15 15 14 11 13 12 11 11 10 9
10 6 7 7 6 2 14 4 17 3 4 6 11 13 8 5 2 6 6 5 6 7 4 5 7 7 10 10 13 11 13 11 10 9 12 13 12 14 15 15 15 14 11 14 14 13 14 12 11
3 1 4 5 3 10 20 8 21 15 16 8 8 5 8 9 7 7 7 7 7 8 6 5 5 7 8 10 12 16 16 15 12 11 9 10 10 10 15 16 14 14 14 15 14 15 16 15 13
4 5 3 5 6 11 9 10 22 5 4 8 6 9 7 8 8 8 9 8 8 8 8 6 7 7 7 7 9 12 15 16 16 15 10 12 9 10 13 16 15 13 15 16 14 14 15 14 14
9 12 4 9 7 4 8 12 10 10 16 10 6 8 8 8 7 7 6 5 6 7 8 7 7 7 8 7 8 7 10 10 11 13 12 10 11 10 13 13 16 17 17 16 15 12 12 15 14
4 10 9 9 3 3 5 7 7 7 3 8 9 9 8 7 6 7 7 8 8 8 9 8 8 8 8 7 6 8 8 10 12 14 12 10 12 11 12 13 14 17 17 16 16 13 15 15 15
8 5 4 4 5 8 5 6 6 5 8 9 9 9 8 7 8 8 8 8 8 8 10 13 12 9 9 8 6 6 8 9 9 11 13 13 11 11 11 12 13 15 16 16 16 14 14 15 13
8 6 4 3 3 2 2 5 8 10 11 12 8 8 8 8 9 8 8 10 8 8 11 12 14 14 14 14 9 8 8 9 9 8 9 10 10 8 10 10 12 14 15 16 15 15 15 16 16
14 11 11 5 5 3 2 4 7 11 10 9 8 8 7 10 9 8 8 8 8 11 12 13 14 14 14 15 15 12 9 9 9 9 8 7 7 7 8 9 10 12 13 14 16 16 14 15 14
Wind_Direction
317 316 293 30 46 66 28 37 47 32 41 9 5 49 131 88 49 181 231 118 126 128 132 131 131 129 128 124 117 110 112 112 112 109 111 118 117 104 102 109 106 103 100 100 100 95 85 83 81
315 319 22 37 82 63 308 170 88 89 144 121 41 18 65 91 99 133 106 123 129 130 133 125 129 134 134 129 122 120 118 120 118 117 121 123 122 122 108 120 104 109 111 106 101 97 93 84 69
298 183 62 82 97 150 132 143 148 153 112 58 96 74 65 113 73 151 204 136 136 131 131 131 133 139 138 133 130 129 130 129 126 129 125 128 127 122 112 117 120 123 112 112 107 98 89 78 59
336 357 6 71 297 272 135 170 144 125 170 173 128 98 59 213 148 166 156 132 113 125 130 135 136 142 145 142 141 138 140 140 134 133 130 139 135 129 114 122 116 112 124 122 110 106 97 79 58
22 53 24 12 271 290 12 108 64 113 148 183 149 154 119 45 115 134 149 124 121 123 131 137 140 145 155 156 150 147 147 143 142 133 134 143 148 133 131 129 145 132 134 122 126 122 107 85 56
4 73 35 328 315 334 47 68 72 29 35 200 111 109 155 143 120 153 148 132 134 135 136 141 141 146 156 168 163 156 153 146 144 150 140 148 160 145 132 150 141 144 148 146 146 136 125 96 53
73 68 248 308 296 330 75 29 68 21 16 337 175 86 150 166 156 149 149 150 139 140 136 146 142 154 163 162 169 163 157 152 151 151 156 157 166 155 143 141 168 160 154 140 153 150 140 110 51
87 89 311 305 318 326 331 6 120 62 7 271 41 126 189 198 160 127 152 197 137 142 150 158 153 153 157 156 169 169 168 158 153 157 154 161 168 173 155 162 174 173 166 156 152 169 167 129 48
34 56 265 258 40 235 355 31 346 141 355 345 136 118 136 135 136 132 161 182 151 159 159 163 165 167 167 170 177 179 182 168 159 156 159 152 153 161 170 169 189 188 148 166 171 180 183 160 198
105 125 229 238 323 348 89 34 330 52 351 322 53 45 115 126 146 167 174 183 190 169 164 166 176 183 175 181 165 175 170 169 161 157 171 176 180 178 180 193 188 167 159 165 188 193 192 190 222
225 190 268 299 141 51 2 3 318 67 322 165 99 180 162 150 172 181 202 200 194 175 171 184 172 191 185 171 169 165 168 165 178 177 187 194 191 194 167 165 172 162 175 188 197 199 208 214 221
311 285 257 278 8 64 334 324 334 283 249 271 163 169 165 174 188 192 201 206 208 208 183 182 188 183 182 163 170 167 172 185 189 191 187 191 192 186 170 174 185 186 193 201 205 207 221 231 233
259 257 260 280 304 239 278 259 245 284 289 286 282 170 180 189 201 208 200 214 212 226 218 180 183 189 185 169 181 169 186 193 199 191 195 189 170 193 174 191 188 194 191 199 208 214 223 226 223
302 310 302 321 291 262 246 262 186 267 269 287 259 218 196 188 199 202 205 209 215 212 220 218 181 188 191 183 186 186 188 196 197 194 195 198 179 182 191 192 204 201 192 202 202 205 210 212 199
278 302 337 292 262 250 296 294 231 245 264 264 262 256 241 217 192 199 205 208 202 212 216 212 200 186 189 195 195 196 192 193 197 204 197 196 191 194 193 200 194 201 198 199 206 221 211 209 209
338 220 261 241 246 254 159 256 254 271 257 249 242 256 247 247 213 207 198 204 198 197 203 225 206 201 194 194 200 199 202 187 202 199 196 200 199 193 194 204 211 203 192 192 191 197 208 210 203
254 248 238 290 236 254 182 256 221 256 318 299 269 268 274 270 256 231 202 200 192 195 197 209 222 202 201 203 188 201 202 205 199 197 197 197 200 200 196 201 206 198 196 199 202 205 187 200 221
222 231 251 236 264 199 210 252 260 278 286 275 258 253 264 278 257 234 223 205 200 197 194 198 212 214 205 200 210 207 213 210 204 205 204 201 199 201 204 201 200 192 195 204 192 196 206 193 207
256 255 256 309 287 179 235 267 272 278 299 295 277 261 255 257 269 232 222 217 201 201 195 200 200 213 190 200 210 215 219 215 214 211 206 202 202 202 204 207 202 201 204 208 200 189 201 222 203
246 264 269 285 255 223 261 274 272 264 266 257 264 261 251 247 258 269 260 210 213 208 202 206 202 203 203 206 208 221 222 224 220 213 211 206 206 204 208 207 207 204 207 200 202 203 209 222 186
225 232 241 242 296 240 311 276 267 244 251 255 260 254 256 241 239 247 258 246 216 222 213 205 205 197 197 207 205 205 224 238 213 224 220 215 210 206 205 208 210 210 208 210 206 203 205 219 213
240 214 232 251 278 262 135 286 275 272 257 260 266 265 265 240 243 245 279 308 292 237 236 238 233 213 205 196 205 205 214 220 223 229 228 223 218 213 207 209 209 210 209 216 211 206 209 206 213
253 263 220 219 230 300 250 274 279 240 232 279 284 271 249 286 147 94 62 43 51 22 351 253 251 242 232 213 213 215 221 231 229 228 228 220 218 214 213 210 211 214 212 218 214 211 210 208 213
214 32 35 10 139 246 248 188 269 259 248 229 271 349 121 106 78 61 55 42 20 9 18 13 331 280 259 234 227 227 227 227 227 226 223 226 223 218 220 217 214 215 217 220 217 215 213 217 218
125 105 246 223 210 247 173 186 238 259 225 192 242 140 109 102 87 60 37 16 6 1 350 344 345 320 312 277 253 238 238 238 236 231 225 227 222 220 220 216 217 218 219 221 221 220 221 217 219
206 196 222 218 210 267 160 223 240 229 242 253 133 103 97 98 91 79 53 22 344 341 337 329 331 320 320 315 301 280 256 245 243 236 233 233 232 225 224 216 217 220 220 219 219 219 220 222 222
181 205 245 270 128 317 232 277 299 232 82 107 103 95 94 93 82 58 20 18 3 358 342 338 325 313 314 305 300 300 287 268 253 245 237 232 233 232 227 221 216 219 219 216 216 218 222 221 224
202 159 152 200 237 248 276 272 230 127 128 116 112 120 118 85 57 49 37 31 17 9 356 356 347 326 308 309 303 304 299 294 275 261 244 235 231 226 227 222 220 219 218 215 213 218 222 224 225
174 178 155 129 249 203 261 289 284 161 144 139 136 123 111 103 77 61 45 29 15 6 7 356 357 350 346 335 312 312 311 305 298 276 259 248 239 218 221 222 222 219 221 219 215 222 224 226 228
204 211 187 185 179 205 218 242 291 153 151 132 141 120 104 75 76 59 49 28 12 5 2 358 351 349 350 342 335 315 311 311 307 298 278 254 240 235 227 224 224 226 223 217 217 217 219 227 230